www.pogodaiklimat.ru

Погода и климат >> Архив погоды >> Турция >> Аэропорт GAP


ПОГОДА в Аэропорту GAP

  • Прогноз погоды в Аэропорту GAP
  • Монитор погоды в Аэропорту GAP

АРХИВ ПОГОДЫ в Аэропорту GAP

Время (UTC), дата Ветер
(напр.,м/с)
 
Видим.   Явления Облачность Т
(С)
Тd
(С)
f
(%)
Тe
(С)
Тes
(С)
Комфортность P
(гПа)
Po
(гПа)
Тmin
(С)
Tmax
(С)
R
(мм)
R24
(мм)
S
(см)
06 10.07 СЗ 4
{11}
10 км ясно +29.9 +5.1 21 +28 +35 жарко 999.9 912.7 +20.6
09 10.07 С 5
{9}
10 км ясно +33.0 +3.7 16 +30 +41 жарко 998.9 911.9
12 10.07 СЗ 4
{9}
10 км ясно +35.5 +2.5 13 +32 +42 жарко 997.5 910.6
15 10.07 С 4
{9}
10 км ясно +34.8 +0.1 11 +31 +33 жарко 997.3 910.0
18 10.07 З 3
{9}
10 км ясно +29.2 +0.6 16 +27 +27 жарко 997.4 910.4 +36.2
21 10.07 З 3
{5}
10 км ясно +26.2 +3.0 22 +25 +25 комфорт 997.3 910.3
00 11.07 З 4
{7}
10 км ясно +25.6 +8.0 33 +26 +26 жарко 996.6 910.0
03 11.07 З 6
{7}
10 км ясно +25.6 +10.5 39 +27 +27 жарко 996.9 910.1
06 11.07 З 6
{9}
10 км ясно +31.5 +8.4 24 +30 +34 жарко 997.7 910.9 +24.6
09 11.07 ЮЗ 5
{10}
10 км ясно +34.5 +6.1 17 +32 +44 жарко 997.6 910.8
12 11.07 З 8
{12}
10 км ясно +35.6 +6.2 16 +33 +36 жарко 996.1 909.5
15 11.07 З 5
{12}
10 км ясно +35.1 +6.7 17 +33 +34 жарко 995.3 908.7
18 11.07 ЮЗ 7
{12}
10 км ясно +30.0 +14.2 38 +32 +32 жарко 996.4 909.8 +36.7
21 11.07 ЮЗ 9
{13}
10 км ясно +26.1 +14.8 50 +29 +29 жарко 996.7 910.0
00 12.07 З 7
{15}
10 км ясно +24.6 +13.3 49 +27 +27 жарко 997.1 910.3
03 12.07 С 2
{10}
10 км ясно +23.3 +14.1 56 +27 +27 душно 998.7 911.5
06 12.07 З 5
{10}
10 км ясно +28.0 +13.1 40 +30 +35 жарко 999.8 912.4 +23.0
09 12.07 ЮЗ 8
{11}
10 км 3/3 1200 м
[Cu hum]
+32.9 +12.8 30 +34 +37 очень
жарко
999.6 912.4
12 12.07 ЮЗ 7-13
{15}
10 км 3/3 1200 м
[Cu hum]
+33.8 +10.7 24 +33 +36 жарко 998.3 911.1
15 12.07 ЮЗ 9
{13}
10 км 3/3 1200 м
[Cu hum]
+32.1 +10.6 27 +32 +32 жарко 998.1 910.5
18 12.07 ЮЗ 7
{13}
10 км ясно +27.3 +13.3 42 +29 +29 жарко 999.7 912.0 +35.1
21 12.07 ЮЗ 7
{12}
10 км ясно +24.2 +12.6 48 +26 +26 жарко 1000.0 912.5
00 13.07 З 5
{12}
10 км ясно +22.2 +13.1 56 +25 +25 комфорт 1000.1 912.4
03 13.07 З 3
{8}
10 км ясно +21.0 +13.0 60 +24 +24 комфорт 1001.2 913.0
06 13.07 З 3
{8}
10 км ясно +26.9 +11.4 38 +28 +37 жарко 1002.1 914.0 +20.6
09 13.07 СЗ 4
{10}
10 км ясно +30.1 +9.3 27 +30 +45 жарко 1001.5 913.5
12 13.07 ЮЗ 4
{10}
10 км 3/3 1200 м
[Cu med, cong]
+31.7 +8.5 24 +31 +38 жарко 1000.3 912.3
15 13.07 З 7
{12}
10 км 6/3 1200 м
[Cu med, cong Ac trans]
+30.1 +5.5 21 +28 +29 жарко 1000.2 911.8
18 13.07 З 4
{16}
10 км 4/0
[Ac trans]
+23.9 +8.7 38 +25 +25 комфорт 1001.8 913.2 +32.0
21 13.07 З 5
{7}
10 км ясно +21.9 +9.0 44 +23 +23 комфорт 1001.7 913.3
00 14.07 З 6
{9}
10 км ясно +20.7 +8.5 45 +22 +22 комфорт 1001.5 913.2
03 14.07 З 2
{10}
10 км ясно +20.0 +9.0 49 +22 +22 комфорт 1002.3 913.6
06 14.07 З 7
{10}
10 км ясно +26.3 +5.9 27 +26 +29 жарко 1003.1 914.3 +19.0
09 14.07 З 4
{10}
10 км ясно +30.7 +2.7 17 +28 +43 жарко 1002.2 913.9
12 14.07 ЮЗ 4
{12}
10 км ясно +32.0 +5.3 19 +30 +39 жарко 1001.1 912.9
15 14.07 З 5
{11}
10 км ясно +31.2 +7.4 23 +30 +31 жарко 1000.5 912.1
18 14.07 ЮЗ 7
{11}
10 км ясно +26.8 +9.5 34 +27 +27 жарко 1001.3 913.1 +32.4
21 14.07 ЮЗ 4
{10}
10 км ясно +23.2 +11.9 49 +26 +26 жарко 1001.2 913.1
00 15.07 ЮЗ 4
{10}
10 км ясно +20.8 +12.7 60 +23 +23 комфорт 1000.1 912.0
03 15.07 Ю 3
{7}
10 км ясно +18.9 +12.9 68 +20 +20 1001.0 912.4
06 15.07 ЮЗ 6
{10}
10 км ясно +24.7 +11.7 44 +26 +31 жарко 1001.8 913.3 +18.7
09 15.07 ЮЗ 7
{12}
10 км 3/3 1200 м
[Cu med, cong]
+28.2 +11.1 35 +29 +33 жарко 1001.7 913.2
12 15.07 ЮЗ 8
{12}
10 км 3/3 1200 м
[Cu med, cong]
+30.6 +9.8 28 +30 +32 жарко 1000.6 912.2
15 15.07 ЮЗ 8
{12}
10 км 3/3 1200 м
[Cu med, cong]
+29.5 +11.1 32 +30 +30 жарко 1000.7 911.9
18 15.07 ЮЗ 7
{12}
10 км ясно +25.2 +11.1 41 +26 +26 жарко 1001.7 913.0 +31.3
21 15.07 ЮЗ 6
{11}
10 км ясно +21.6 +12.9 58 +24 +24 комфорт 1002.3 913.5
00 16.07 З 5
{11}
10 км ясно +20.9 +13.6 63 +24 +24 комфорт 1001.1 912.7
03 16.07 З 5
{7}
10 км ясно +21.1 +12.0 56 +23 +23 комфорт 1001.7 913.1
06 16.07 СЗ 6
{9}
10 км ясно +27.1 +7.9 30 +27 +32 жарко 1002.2 913.8 +20.3
09 16.07 З 4
{9}
10 км ясно +29.4 +6.4 23 +28 +43 жарко 1002.4 913.8
12 16.07 З 7
{11}
10 км ясно +31.6 +2.7 16 +29 +33 жарко 1001.1 912.8
15 16.07 З 6
{11}
10 км ясно +31.0 +1.4 15 +28 +29 жарко 1000.4 912.1
18 16.07 ЮЗ 7
{11}
10 км ясно +26.7 +11.3 38 +28 +28 жарко 1000.6 912.6 +32.3
21 16.07 З 6
{10}
10 км ясно +23.8 +13.0 51 +26 +26 жарко 1000.9 912.8
00 17.07 ЮЗ 5
{10}
10 км ясно +20.8 +13.3 62 +23 +23 комфорт 1000.4 912.2
03 17.07 З 4
{5}
10 км ясно +21.0 +10.9 52 +23 +24 комфорт 1000.4 912.1

 

Местоположение метеостанции Аэропорт GAP (Турция): широта 37.43 долгота 38.90 высота над уровнем моря 822 м.

В архиве по умолчанию представлена погода в Аэропорту GAP за последнюю неделю. Архивные данные за месяц целиком и за предыдущие месяцы, начиная с января 2011 года, Вы можете получить, выбрав интересующий диапазон дат из раскрывающегося списка и нажав кнопку "Ввод!".


*Определитесь, кто Вы:
робот инопланетянин человек

Внимание! Время в таблицах - всемирное. Для получения местного времени необходимо прибавить поправку, которая равна 2 ч.

Смотрите также архив погоды в соседних городах и на ближайших метеорологических станциях:

Погода в Шанлыурфе (Турция) (35 км)
Погода в Адыямане (Турция) (65 км)
Погода в Эт-Телль-эль-Абьяде (Сирия) (81 км)
Погода в Аэропорту Малатья Тулга (Турция) (117 км)
Погода в Диярбакыре (Турция) (123 км)
Погода в Аэропорту Малатья (Турция) (132 км)
Погода в Элязыге (Турция) (134 км)
Погода в Газиантепе (Турция) (141 км)
Погода в Газиантепе (Турция) (143 км)
Погода в Мардине (Турция) (162 км)

Пояснения к столбцам:

Ветер - указаны скорость ветра в м/с - средняя за 10 мин, порывы в срок и между сроками (в фигурных скобках) и направление, откуда дует ветер: С - северный, СВ - северо-восточный, В - восточный, ЮВ - юго-восточный, Ю - южный, ЮЗ - юго-западный, З - западный, СЗ - северо-западный.
Видимость - горизонтальная дальность видимости в метрах или километрах. При видимости от 1 до 10 км при отсутствии осадков обычно наблюдается дымка, при ухудшении видимости до 1 км и менее - туман. В сухую погоду видимость может ухудшаться дымом, пылью или мглою.
Явления - указаны атмосферные явления, наблюдавшиеся в срок или в последний час перед сроком; фигурными скобками обозначены явления, наблюдавшиеся между сроками (за 1-3 часа до срока); квадратными скобками обозначены град или гололедные отложения с указанием их диаметра в мм.
Облачность - указаны через наклонную черту общая и нижняя облачность в баллах и высота нижней границы облаков в метрах; квадратными скобками обозначены формы облаков: Ci - перистые, Cs - перисто-слоистые, Cc - перисто-кучевые, Ac - высококучевые, As - высокослоистые, Sc - слоисто-кучевые, Ns - слоисто-дождевые, Cu - кучевые, Cb - кучево-дождевые. Подробнее классификацию облаков см. в Атласе облаков (PDF).
T - Температура воздуха - температура, измеренная на высоте 2 м над землей.
Td - Температура точки росы - температура, при понижении до которой содержащийся в воздухе водяной пар достигнет насыщения.
f - Относительная влажность воздуха - влажноcть воздуха, измеренная на высоте 2 м над землей.
Te - Эффективная температура - температура, которую ощущает одетый по сезону человек в тени. Характеристика душности погоды. При расчете учитывается влияние влажности воздуха и скорости ветра на теплоощущения человека.
Tes - Эффективная температура на солнце - температура, которую ощущает человек, с поправкой на солнечный нагрев. Характеристика знойности погоды. Зависит от высоты солнца над горизонтом, облачности и скорости ветра. Ночью, в пасмурную погоду, а также при ветре 12 м/с и более поправка равна нулю.
P - Атмосферное давление - приведенное к уровню моря атмосферное давление.
Po - Атмосферное давление - измеренное на уровне метеостанции атмосферное давление.
Tmin - Минимальная температура - минимум температуры воздуха на высоте 2 м над землей.
Tmax - Максимальная температура - максимум температуры воздуха на высоте 2 м над землей.
R - Количество осадков - Количество выпавших осадков за период времени, мм. При наведении курсора мыши на число - период времени, за который выпало указанное количество осадков.
R24 - Количество осадков - Количество выпавших осадков за 24 часа, мм.
S - Снежный покров - Высота снежного покрова, см. При наведении курсора мыши на число - состояние снежного покрова и степень покрытия местности в баллах.